RADUGA 29 [-]

Last updated on Jan. 23, 2021, 7:21 a.m. UTC

1 22557U 93013A   21022.93385032 -.00000338  00000-0  00000-0 0  9992
2 22557  14.8350   0.6860 0005975  67.5624 137.7000  1.00185076101918
UTC
Height (km)
Latitude
Longitude
Inclination
Orbital Period
UTC large
Height (km)
Speed (km/s)
/
Latitude / Longitude
Inclination (degrees)
Orbital Period (minutes)
Azimuth
Elevation
Range (km)
Doppler Factor
iOS Compass Heading
iOS Angle

Next 30 passes for location: Hong Kong

Rise time Rise Azimuth (degrees) Set time Set Azimuth (degrees) Duration Max altitude (degrees)

No matching passes for this satellites